Time,TemperatureF,DewpointF,PressureIn,WindDirection,WindDirectionDegrees,WindSpeedMPH,WindSpeedGustMPH,Humidity,HourlyPrecipIn,Conditions,Clouds,dailyrainin,SoftwareType,DateUTC
2013-06-28 00:01:00,77.6,73.8,29.82,WSW,244,0.0,0.0,88,0.00,,---,0.01,VWS V13.01,2013-06-28 04:01:00,
2013-06-28 00:02:00,77.6,74.1,29.82,WSW,244,0.0,0.0,89,0.00,,---,0.01,VWS V13.01,2013-06-28 04:02:00,
2013-06-28 00:07:00,77.5,74.0,29.82,WSW,244,0.0,0.0,89,0.00,,---,0.00,VWS V13.01,2013-06-28 04:07:00,
2013-06-28 00:12:00,77.4,73.6,29.82,WSW,244,0.0,0.0,88,0.00,,---,0.00,VWS V13.01,2013-06-28 04:12:00,
2013-06-28 00:17:00,77.3,73.8,29.82,WSW,244,0.0,0.0,89,0.00,,---,0.00,VWS V13.01,2013-06-28 04:17:00,
2013-06-28 00:22:00,77.2,73.7,29.82,WSW,244,0.0,0.0,89,0.00,,---,0.00,VWS V13.01,2013-06-28 04:22:00,
2013-06-28 00:27:00,77.1,73.6,29.83,WSW,244,0.0,0.0,89,0.00,,---,0.00,VWS V13.01,2013-06-28 04:27:00,
2013-06-28 00:32:00,77.1,73.9,29.83,WSW,244,0.0,0.0,90,0.00,,---,0.00,VWS V13.01,2013-06-28 04:32:00,
2013-06-28 00:37:00,77.0,73.8,29.83,WSW,244,0.0,0.0,90,0.00,,---,0.00,VWS V13.01,2013-06-28 04:37:00,
2013-06-28 00:42:00,76.9,73.8,29.83,WSW,244,0.0,0.0,90,0.00,,---,0.00,VWS V13.01,2013-06-28 04:42:00,
2013-06-28 00:47:00,77.1,74.3,29.83,WSW,244,0.0,0.0,91,0.00,,---,0.00,VWS V13.01,2013-06-28 04:47:00,
2013-06-28 00:52:00,77.1,73.9,29.83,WSW,244,0.0,0.0,90,0.00,,---,0.00,VWS V13.01,2013-06-28 04:52:00,
2013-06-28 00:57:00,77.3,74.5,29.83,WSW,244,0.0,0.0,91,0.00,,---,0.00,VWS V13.01,2013-06-28 04:57:00,
2013-06-28 01:02:00,77.5,74.3,29.83,WSW,244,0.0,1.0,90,0.00,,---,0.00,VWS V13.01,2013-06-28 05:02:00,
2013-06-28 01:07:00,77.7,74.5,29.83,WSW,244,0.0,0.0,90,0.00,,---,0.00,VWS V13.01,2013-06-28 05:07:00,
2013-06-28 01:12:00,77.8,74.6,29.83,WSW,244,0.0,0.0,90,0.00,,---,0.00,VWS V13.01,2013-06-28 05:12:00,
2013-06-28 01:17:00,77.9,74.7,29.83,WSW,244,0.0,0.0,90,0.00,,---,0.00,VWS V13.01,2013-06-28 05:17:00,
2013-06-28 01:22:00,77.9,74.7,29.83,WSW,242,0.0,0.0,90,0.00,,---,0.00,VWS V13.01,2013-06-28 05:22:00,
2013-06-28 01:27:00,77.8,74.3,29.83,WSW,244,0.0,1.0,89,0.00,,---,0.00,VWS V13.01,2013-06-28 05:27:00,
2013-06-28 01:32:00,77.9,74.7,29.83,WSW,245,0.0,2.0,90,0.00,,---,0.00,VWS V13.01,2013-06-28 05:32:00,
2013-06-28 01:37:00,77.9,74.4,29.83,WSW,252,0.0,3.0,89,0.00,,---,0.00,VWS V13.01,2013-06-28 05:37:00,
2013-06-28 01:43:00,77.9,74.1,29.83,WSW,241,0.0,4.0,88,0.00,,---,0.00,VWS V13.01,2013-06-28 05:43:00,
2013-06-28 01:48:00,77.9,74.1,29.83,WSW,244,0.0,4.0,88,0.00,,---,0.00,VWS V13.01,2013-06-28 05:48:00,
2013-06-28 01:53:00,77.8,73.6,29.83,SW,227,0.0,4.0,87,0.00,,---,0.00,VWS V13.01,2013-06-28 05:53:00,
2013-06-28 01:58:00,77.9,73.7,29.83,WSW,250,0.0,2.0,87,0.00,,---,0.00,VWS V13.01,2013-06-28 05:58:00,
2013-06-28 02:03:00,77.8,74.0,29.83,SW,232,0.0,3.0,88,0.00,,---,0.00,VWS V13.01,2013-06-28 06:03:00,
2013-06-28 02:08:00,77.7,73.9,29.82,SW,230,0.0,1.0,88,0.00,,---,0.00,VWS V13.01,2013-06-28 06:08:00,
2013-06-28 02:13:00,77.5,74.0,29.82,WSW,257,0.0,3.0,89,0.00,,---,0.00,VWS V13.01,2013-06-28 06:13:00,
2013-06-28 02:18:00,77.3,73.8,29.82,WSW,246,1.0,3.0,89,0.00,,---,0.00,VWS V13.01,2013-06-28 06:18:00,
2013-06-28 02:23:00,77.1,73.9,29.82,WSW,246,0.0,3.0,90,0.00,,---,0.00,VWS V13.01,2013-06-28 06:23:00,
2013-06-28 02:28:00,77.0,73.8,29.82,WSW,237,0.0,0.0,90,0.00,,---,0.00,VWS V13.01,2013-06-28 06:28:00,
2013-06-28 02:33:00,76.9,73.8,29.82,WSW,237,0.0,0.0,90,0.00,,---,0.00,VWS V13.01,2013-06-28 06:33:00,
2013-06-28 02:38:00,76.7,73.6,29.82,WSW,237,0.0,0.0,90,0.00,,---,0.00,VWS V13.01,2013-06-28 06:38:00,
2013-06-28 02:43:00,76.6,73.8,29.82,WSW,237,0.0,0.0,91,0.00,,---,0.00,VWS V13.01,2013-06-28 06:43:00,
2013-06-28 02:48:00,76.5,73.7,29.82,WSW,237,0.0,0.0,91,0.00,,---,0.00,VWS V13.01,2013-06-28 06:48:00,
2013-06-28 02:53:00,76.4,73.6,29.82,WSW,237,0.0,0.0,91,0.00,,---,0.00,VWS V13.01,2013-06-28 06:53:00,
2013-06-28 02:58:00,76.4,73.6,29.81,WSW,237,0.0,0.0,91,0.00,,---,0.00,VWS V13.01,2013-06-28 06:58:00,
2013-06-28 03:03:00,76.3,73.5,29.81,WSW,237,0.0,0.0,91,0.00,,---,0.00,VWS V13.01,2013-06-28 07:03:00,
2013-06-28 03:08:00,76.2,73.4,29.81,WSW,237,0.0,0.0,91,0.00,,---,0.00,VWS V13.01,2013-06-28 07:08:00,
2013-06-28 03:13:00,76.1,73.3,29.81,WSW,237,0.0,0.0,91,0.00,,---,0.00,VWS V13.01,2013-06-28 07:13:00,
2013-06-28 03:18:00,75.9,73.1,29.81,WSW,237,0.0,0.0,91,0.00,,---,0.00,VWS V13.01,2013-06-28 07:18:00,
2013-06-28 03:23:00,75.8,73.3,29.81,WSW,237,0.0,0.0,92,0.00,,---,0.00,VWS V13.01,2013-06-28 07:23:00,
2013-06-28 03:28:00,75.8,73.3,29.81,WSW,237,0.0,0.0,92,0.00,,---,0.00,VWS V13.01,2013-06-28 07:28:00,
2013-06-28 03:33:00,75.6,73.1,29.81,WSW,237,0.0,0.0,92,0.00,,---,0.00,VWS V13.01,2013-06-28 07:33:00,
2013-06-28 03:38:00,75.5,73.0,29.81,WSW,237,0.0,0.0,92,0.00,,---,0.00,VWS V13.01,2013-06-28 07:38:00,
2013-06-28 03:43:00,75.4,72.9,29.80,WSW,237,0.0,1.0,92,0.00,,---,0.00,VWS V13.01,2013-06-28 07:43:00,
2013-06-28 03:48:00,75.5,73.0,29.80,WSW,244,0.0,0.0,92,0.00,,---,0.00,VWS V13.01,2013-06-28 07:48:00,
2013-06-28 03:53:00,75.5,73.0,29.80,WSW,244,0.0,0.0,92,0.00,,---,0.00,VWS V13.01,2013-06-28 07:53:00,
2013-06-28 03:58:00,75.4,72.9,29.80,WSW,244,0.0,0.0,92,0.00,,---,0.00,VWS V13.01,2013-06-28 07:58:00,
2013-06-28 04:03:00,75.2,72.7,29.80,WSW,244,0.0,0.0,92,0.00,,---,0.00,VWS V13.01,2013-06-28 08:03:00,
2013-06-28 04:08:00,75.1,72.6,29.79,WSW,244,0.0,0.0,92,0.00,,---,0.00,VWS V13.01,2013-06-28 08:08:00,
2013-06-28 04:13:00,74.9,72.7,29.79,WSW,244,0.0,3.0,93,0.00,,---,0.00,VWS V13.01,2013-06-28 08:13:00,
2013-06-28 04:18:00,74.8,72.6,29.79,WSW,244,0.0,0.0,93,0.00,,---,0.00,VWS V13.01,2013-06-28 08:18:00,
2013-06-28 04:23:00,74.8,72.3,29.79,WSW,244,0.0,1.0,92,0.00,,---,0.00,VWS V13.01,2013-06-28 08:23:00,
2013-06-28 04:28:00,74.7,72.6,29.80,WSW,244,0.0,0.0,93,0.00,,---,0.00,VWS V13.01,2013-06-28 08:28:00,
2013-06-28 04:33:00,74.6,72.4,29.79,WSW,244,0.0,0.0,93,0.00,,---,0.00,VWS V13.01,2013-06-28 08:33:00,
2013-06-28 04:38:00,74.6,72.4,29.79,WSW,244,0.0,0.0,93,0.00,,---,0.00,VWS V13.01,2013-06-28 08:38:00,
2013-06-28 04:43:00,74.5,72.3,29.79,WSW,244,0.0,0.0,93,0.00,,---,0.00,VWS V13.01,2013-06-28 08:43:00,
2013-06-28 04:48:00,74.5,72.3,29.79,WSW,244,0.0,0.0,93,0.00,,---,0.00,VWS V13.01,2013-06-28 08:48:00,
2013-06-28 04:53:00,74.4,72.2,29.79,WSW,244,0.0,0.0,93,0.00,,---,0.00,VWS V13.01,2013-06-28 08:53:00,
2013-06-28 04:58:00,74.4,72.2,29.79,WSW,244,0.0,0.0,93,0.00,,---,0.00,VWS V13.01,2013-06-28 08:58:00,
2013-06-28 05:03:00,74.3,72.2,29.79,WSW,244,0.0,0.0,93,0.00,,---,0.00,VWS V13.01,2013-06-28 09:03:00,
2013-06-28 05:08:00,74.2,72.1,29.79,WSW,244,0.0,0.0,93,0.00,,---,0.00,VWS V13.01,2013-06-28 09:08:00,
2013-06-28 05:13:00,74.1,71.9,29.79,WSW,244,0.0,0.0,93,0.00,,---,0.00,VWS V13.01,2013-06-28 09:13:00,
2013-06-28 05:18:00,74.1,72.3,29.79,WSW,244,0.0,0.0,94,0.00,,---,0.00,VWS V13.01,2013-06-28 09:18:00,
2013-06-28 05:23:00,74.3,72.5,29.79,WSW,243,0.0,0.0,94,0.00,,---,0.00,VWS V13.01,2013-06-28 09:23:00,
2013-06-28 05:28:00,74.4,72.6,29.79,WSW,243,0.0,0.0,94,0.00,,---,0.00,VWS V13.01,2013-06-28 09:28:00,
2013-06-28 05:33:00,74.4,72.6,29.80,WSW,242,0.0,1.0,94,0.00,,---,0.00,VWS V13.01,2013-06-28 09:33:00,
2013-06-28 05:38:00,74.3,72.5,29.80,WSW,243,0.0,1.0,94,0.00,,---,0.00,VWS V13.01,2013-06-28 09:38:00,
2013-06-28 05:43:00,74.3,72.5,29.79,WSW,240,0.0,1.0,94,0.00,,---,0.00,VWS V13.01,2013-06-28 09:43:00,
2013-06-28 05:45:00,74.3,72.5,29.79,WSW,240,0.0,1.0,94,0.00,,---,0.00,VWS V13.01,2013-06-28 09:45:00,
2013-06-28 05:50:00,74.3,72.5,29.79,WSW,240,0.0,0.0,94,0.00,,---,0.00,VWS V13.01,2013-06-28 09:50:00,
2013-06-28 05:55:00,74.3,72.5,29.79,WSW,240,0.0,0.0,94,0.00,,---,0.00,VWS V13.01,2013-06-28 09:55:00,
2013-06-28 06:00:00,74.4,72.6,29.79,WSW,239,0.0,1.0,94,0.00,,---,0.00,VWS V13.01,2013-06-28 10:00:00,
2013-06-28 06:05:00,74.4,72.6,29.80,WSW,238,0.0,1.0,94,0.00,,---,0.00,VWS V13.01,2013-06-28 10:05:00,
2013-06-28 06:10:00,74.3,72.5,29.80,WSW,239,0.0,0.0,94,0.00,,---,0.00,VWS V13.01,2013-06-28 10:10:00,
2013-06-28 06:15:00,74.4,72.6,29.80,WSW,238,0.0,0.0,94,0.00,,---,0.00,VWS V13.01,2013-06-28 10:15:00,
2013-06-28 06:20:00,74.4,72.9,29.80,WSW,238,0.0,0.0,95,0.00,,---,0.00,VWS V13.01,2013-06-28 10:20:00,
2013-06-28 06:25:00,74.3,72.8,29.80,WSW,239,0.0,0.0,95,0.00,,---,0.00,VWS V13.01,2013-06-28 10:25:00,
2013-06-28 06:30:00,74.2,72.7,29.80,WSW,238,0.0,0.0,95,0.00,,---,0.00,VWS V13.01,2013-06-28 10:30:00,
2013-06-28 06:35:00,74.2,72.7,29.81,WSW,239,0.0,0.0,95,0.00,,---,0.00,VWS V13.01,2013-06-28 10:35:00,
2013-06-28 06:40:00,74.2,72.7,29.81,WSW,239,0.0,0.0,95,0.00,,---,0.00,VWS V13.01,2013-06-28 10:40:00,
2013-06-28 06:45:00,74.2,72.7,29.81,WSW,239,0.0,0.0,95,0.00,,---,0.00,VWS V13.01,2013-06-28 10:45:00,
2013-06-28 06:50:00,74.2,72.7,29.81,WSW,239,1.0,2.0,95,0.00,,---,0.00,VWS V13.01,2013-06-28 10:50:00,
2013-06-28 06:55:00,74.3,72.8,29.81,WSW,238,0.0,2.0,95,0.00,,---,0.00,VWS V13.01,2013-06-28 10:55:00,
2013-06-28 07:00:00,74.4,72.9,29.81,WSW,239,0.0,1.0,95,0.00,,---,0.00,VWS V13.01,2013-06-28 11:00:00,
2013-06-28 07:05:00,74.4,72.9,29.81,WSW,241,0.0,3.0,95,0.00,,---,0.00,VWS V13.01,2013-06-28 11:05:00,
2013-06-28 07:10:00,74.5,73.0,29.80,SSW,213,0.0,2.0,95,0.00,,---,0.00,VWS V13.01,2013-06-28 11:10:00,
2013-06-28 07:15:00,74.7,73.2,29.80,SW,223,0.0,2.0,95,0.00,,---,0.00,VWS V13.01,2013-06-28 11:15:00,
2013-06-28 07:20:00,74.8,73.3,29.80,SW,220,0.0,1.0,95,0.00,,---,0.00,VWS V13.01,2013-06-28 11:20:00,
2013-06-28 07:25:00,74.9,73.4,29.80,WSW,241,0.0,1.0,95,0.00,,---,0.00,VWS V13.01,2013-06-28 11:25:00,
2013-06-28 07:30:00,75.0,73.5,29.80,WSW,240,0.0,0.0,95,0.00,,---,0.00,VWS V13.01,2013-06-28 11:30:00,
2013-06-28 07:35:00,75.2,73.7,29.81,WSW,240,0.0,0.0,95,0.00,,---,0.00,VWS V13.01,2013-06-28 11:35:00,
2013-06-28 07:40:00,75.3,73.8,29.81,WSW,241,0.0,1.0,95,0.00,,---,0.00,VWS V13.01,2013-06-28 11:40:00,
2013-06-28 07:45:00,75.5,74.0,29.81,WSW,237,0.0,1.0,95,0.00,,---,0.00,VWS V13.01,2013-06-28 11:45:00,
2013-06-28 07:50:00,75.6,74.1,29.80,WSW,240,0.0,3.0,95,0.00,,---,0.00,VWS V13.01,2013-06-28 11:50:00,
2013-06-28 07:55:00,75.7,74.2,29.80,SW,235,1.0,4.0,95,0.00,,---,0.00,VWS V13.01,2013-06-28 11:55:00,
2013-06-28 08:00:00,76.0,74.5,29.80,WSW,246,0.0,1.0,95,0.00,,---,0.00,VWS V13.01,2013-06-28 12:00:00,
2013-06-28 08:05:00,76.2,74.7,29.81,SW,229,0.0,4.0,95,0.00,,---,0.00,VWS V13.01,2013-06-28 12:05:00,
2013-06-28 08:10:00,76.5,75.0,29.81,SW,229,0.0,0.0,95,0.00,,---,0.00,VWS V13.01,2013-06-28 12:10:00,
2013-06-28 08:15:00,76.8,74.9,29.81,SW,234,0.0,1.0,94,0.00,,---,0.00,VWS V13.01,2013-06-28 12:15:00,
2013-06-28 08:20:00,77.0,75.1,29.80,SSW,213,0.0,1.0,94,0.00,,---,0.00,VWS V13.01,2013-06-28 12:20:00,
2013-06-28 08:25:00,77.3,75.4,29.81,SW,231,0.0,1.0,94,0.00,,---,0.00,VWS V13.01,2013-06-28 12:25:00,
2013-06-28 08:30:00,77.5,75.6,29.81,WSW,248,0.0,3.0,94,0.00,,---,0.00,VWS V13.01,2013-06-28 12:30:00,
2013-06-28 08:35:00,77.8,75.9,29.81,WSW,247,0.0,0.0,94,0.00,,---,0.00,VWS V13.01,2013-06-28 12:35:00,
2013-06-28 08:40:00,78.1,75.9,29.81,WSW,244,0.0,1.0,93,0.00,,---,0.00,VWS V13.01,2013-06-28 12:40:00,
2013-06-28 08:45:00,78.4,76.2,29.81,WSW,248,0.0,0.0,93,0.00,,---,0.00,VWS V13.01,2013-06-28 12:45:00,
2013-06-28 08:50:00,78.7,76.5,29.81,WSW,242,0.0,2.0,93,0.00,,---,0.00,VWS V13.01,2013-06-28 12:50:00,
2013-06-28 08:56:00,78.8,76.6,29.80,SW,225,0.0,0.0,93,0.00,,---,0.00,VWS V13.01,2013-06-28 12:56:00,
2013-06-28 09:01:00,79.3,76.8,29.81,WSW,239,0.0,4.0,92,0.00,,---,0.00,VWS V13.01,2013-06-28 13:01:00,
2013-06-28 09:06:00,79.6,77.1,29.81,SW,232,0.0,0.0,92,0.00,,---,0.00,VWS V13.01,2013-06-28 13:06:00,
2013-06-28 09:11:00,80.0,77.1,29.80,SW,236,0.0,3.0,91,0.00,,---,0.00,VWS V13.01,2013-06-28 13:11:00,
2013-06-28 09:16:00,80.3,77.1,29.80,WSW,240,0.0,0.0,90,0.00,,---,0.00,VWS V13.01,2013-06-28 13:16:00,
2013-06-28 09:21:00,80.5,77.3,29.80,SSW,207,2.0,5.0,90,0.00,,---,0.00,VWS V13.01,2013-06-28 13:21:00,
2013-06-28 09:26:00,80.8,77.6,29.81,SW,219,3.0,3.0,90,0.00,,---,0.00,VWS V13.01,2013-06-28 13:26:00,
2013-06-28 09:31:00,81.1,77.2,29.80,WSW,249,2.0,5.0,88,0.00,,---,0.00,VWS V13.01,2013-06-28 13:31:00,
2013-06-28 09:36:00,81.5,77.6,29.80,WSW,250,1.0,5.0,88,0.00,,---,0.00,VWS V13.01,2013-06-28 13:36:00,
2013-06-28 09:41:00,81.7,77.8,29.80,West,262,2.0,6.0,88,0.00,,---,0.00,VWS V13.01,2013-06-28 13:41:00,
2013-06-28 09:46:00,81.9,78.0,29.80,SW,222,0.0,4.0,88,0.00,,---,0.00,VWS V13.01,2013-06-28 13:46:00,
2013-06-28 09:51:00,82.2,77.9,29.80,WSW,239,0.0,4.0,87,0.00,,---,0.00,VWS V13.01,2013-06-28 13:51:00,
2013-06-28 09:56:00,82.3,78.1,29.80,WSW,245,5.0,5.0,87,0.00,,---,0.00,VWS V13.01,2013-06-28 13:56:00,
2013-06-28 10:01:00,82.3,77.7,29.79,SW,230,0.0,5.0,86,0.00,,---,0.00,VWS V13.01,2013-06-28 14:01:00,
2013-06-28 10:06:00,82.5,78.2,29.79,WSW,242,1.0,3.0,87,0.00,,---,0.00,VWS V13.01,2013-06-28 14:06:00,
2013-06-28 10:11:00,82.5,78.2,29.79,WSW,252,1.0,6.0,87,0.00,,---,0.00,VWS V13.01,2013-06-28 14:11:00,
2013-06-28 10:16:00,82.5,77.9,29.79,SW,227,0.0,3.0,86,0.00,,---,0.00,VWS V13.01,2013-06-28 14:16:00,
2013-06-28 10:21:00,82.8,77.8,29.79,WSW,243,2.0,6.0,85,0.00,,---,0.00,VWS V13.01,2013-06-28 14:21:00,
2013-06-28 10:26:00,82.7,77.4,29.79,WSW,237,3.0,4.0,84,0.00,,---,0.00,VWS V13.01,2013-06-28 14:26:00,
2013-06-28 10:31:00,83.1,77.8,29.79,WSW,251,1.0,4.0,84,0.00,,---,0.00,VWS V13.01,2013-06-28 14:31:00,
2013-06-28 10:36:00,83.2,77.1,29.79,SSW,205,0.0,3.0,82,0.00,,---,0.00,VWS V13.01,2013-06-28 14:36:00,
2013-06-28 10:41:00,83.6,77.5,29.79,WSW,240,0.0,7.0,82,0.00,,---,0.00,VWS V13.01,2013-06-28 14:41:00,
2013-06-28 10:46:00,84.0,78.3,29.79,SSW,213,1.0,1.0,83,0.00,,---,0.00,VWS V13.01,2013-06-28 14:46:00,
2013-06-28 10:51:00,84.3,78.6,29.78,SW,228,0.0,5.0,83,0.00,,---,0.00,VWS V13.01,2013-06-28 14:51:00,
2013-06-28 10:56:00,84.5,78.0,29.79,WSW,238,1.0,2.0,81,0.00,,---,0.00,VWS V13.01,2013-06-28 14:56:00,
2013-06-28 11:01:00,84.7,77.5,29.78,SW,219,1.0,6.0,79,0.00,,---,0.00,VWS V13.01,2013-06-28 15:01:00,
2013-06-28 11:06:00,85.0,78.1,29.78,WSW,252,0.0,4.0,80,0.00,,---,0.00,VWS V13.01,2013-06-28 15:06:00,
2013-06-28 11:11:00,85.3,78.4,29.78,WSW,240,2.0,6.0,80,0.00,,---,0.00,VWS V13.01,2013-06-28 15:11:00,
2013-06-28 11:16:00,85.5,77.9,29.78,SW,223,0.0,0.0,78,0.00,,---,0.00,VWS V13.01,2013-06-28 15:16:00,
2013-06-28 11:21:00,85.5,78.2,29.78,WSW,237,3.0,5.0,79,0.00,,---,0.00,VWS V13.01,2013-06-28 15:21:00,
2013-06-28 11:26:00,85.4,78.2,29.79,SW,234,0.0,2.0,79,0.00,,---,0.00,VWS V13.01,2013-06-28 15:26:00,
2013-06-28 11:31:00,85.3,78.4,29.79,SW,227,0.0,4.0,80,0.00,,---,0.00,VWS V13.01,2013-06-28 15:31:00,
2013-06-28 11:36:00,85.7,78.8,29.79,SW,231,0.0,2.0,80,0.00,,---,0.00,VWS V13.01,2013-06-28 15:36:00,
2013-06-28 11:41:00,85.8,78.5,29.79,WSW,253,1.0,4.0,79,0.00,,---,0.00,VWS V13.01,2013-06-28 15:41:00,
2013-06-28 11:46:00,86.2,78.2,29.79,SW,215,1.0,5.0,77,0.00,,---,0.00,VWS V13.01,2013-06-28 15:46:00,
2013-06-28 11:51:00,86.4,78.3,29.78,WSW,240,0.0,6.0,77,0.00,,---,0.00,VWS V13.01,2013-06-28 15:51:00,
2013-06-28 11:57:00,86.6,77.7,29.78,SW,233,2.0,4.0,75,0.00,,---,0.00,VWS V13.01,2013-06-28 15:57:00,
2013-06-28 12:02:00,86.1,78.1,29.78,WSW,246,0.0,6.0,77,0.00,,---,0.00,VWS V13.01,2013-06-28 16:02:00,
2013-06-28 12:07:00,86.0,78.7,29.78,WSW,242,0.0,2.0,79,0.00,,---,0.00,VWS V13.01,2013-06-28 16:07:00,
2013-06-28 12:12:00,86.4,77.9,29.77,WSW,244,0.0,2.0,76,0.00,,---,0.00,VWS V13.01,2013-06-28 16:12:00,
2013-06-28 12:17:00,87.0,77.7,29.77,SW,229,4.0,4.0,74,0.00,,---,0.00,VWS V13.01,2013-06-28 16:17:00,
2013-06-28 12:22:00,87.1,77.8,29.77,SW,219,5.0,5.0,74,0.00,,---,0.00,VWS V13.01,2013-06-28 16:22:00,
2013-06-28 12:27:00,86.9,78.0,29.77,SW,233,0.0,6.0,75,0.00,,---,0.00,VWS V13.01,2013-06-28 16:27:00,
2013-06-28 12:32:00,87.2,78.3,29.77,SW,221,1.0,6.0,75,0.00,,---,0.00,VWS V13.01,2013-06-28 16:32:00,
2013-06-28 12:37:00,87.2,77.9,29.77,SW,227,0.0,4.0,74,0.00,,---,0.00,VWS V13.01,2013-06-28 16:37:00,
2013-06-28 12:42:00,87.2,77.5,29.77,SW,228,1.0,5.0,73,0.00,,---,0.00,VWS V13.01,2013-06-28 16:42:00,
2013-06-28 12:47:00,87.4,78.1,29.76,WSW,240,0.0,4.0,74,0.00,,---,0.00,VWS V13.01,2013-06-28 16:47:00,
2013-06-28 12:52:00,87.7,78.8,29.76,SSW,192,4.0,6.0,75,0.00,,---,0.00,VWS V13.01,2013-06-28 16:52:00,
2013-06-28 12:57:00,87.9,78.6,29.76,SSW,207,1.0,9.0,74,0.00,,---,0.00,VWS V13.01,2013-06-28 16:57:00,
2013-06-28 13:02:00,88.0,78.7,29.76,SW,222,5.0,9.0,74,0.00,,---,0.00,VWS V13.01,2013-06-28 17:02:00,
2013-06-28 13:07:00,88.2,79.7,29.75,SW,227,0.0,4.0,76,0.00,,---,0.00,VWS V13.01,2013-06-28 17:07:00,
2013-06-28 13:12:00,88.4,79.5,29.76,SW,234,0.0,6.0,75,0.00,,---,0.00,VWS V13.01,2013-06-28 17:12:00,
2013-06-28 13:17:00,88.3,79.0,29.76,SW,223,5.0,7.0,74,0.00,,---,0.00,VWS V13.01,2013-06-28 17:17:00,
2013-06-28 13:22:00,88.3,79.0,29.76,WSW,242,1.0,10.0,74,0.00,,---,0.00,VWS V13.01,2013-06-28 17:22:00,
2013-06-28 13:27:00,88.4,77.8,29.75,West,263,0.0,6.0,71,0.00,,---,0.00,VWS V13.01,2013-06-28 17:27:00,
2013-06-28 13:32:00,88.7,78.9,29.75,WSW,238,0.0,6.0,73,0.00,,---,0.00,VWS V13.01,2013-06-28 17:32:00,
2013-06-28 13:37:00,88.6,77.6,29.75,SW,227,1.0,4.0,70,0.00,,---,0.00,VWS V13.01,2013-06-28 17:37:00,
2013-06-28 13:42:00,88.3,78.1,29.75,SSW,198,5.0,5.0,72,0.00,,---,0.00,VWS V13.01,2013-06-28 17:42:00,
2013-06-28 13:47:00,87.9,78.6,29.75,WSW,237,1.0,6.0,74,0.00,,---,0.00,VWS V13.01,2013-06-28 17:47:00,
2013-06-28 13:52:00,87.4,78.1,29.75,SW,232,0.0,6.0,74,0.00,,---,0.00,VWS V13.01,2013-06-28 17:52:00,
2013-06-28 13:57:00,87.0,78.1,29.75,WSW,239,0.0,2.0,75,0.00,,---,0.00,VWS V13.01,2013-06-28 17:57:00,
2013-06-28 14:02:00,86.5,77.6,29.75,WSW,240,0.0,2.0,75,0.00,,---,0.00,VWS V13.01,2013-06-28 18:02:00,
2013-06-28 14:07:00,85.9,76.7,29.75,West,262,0.0,0.0,74,0.00,,---,0.00,VWS V13.01,2013-06-28 18:07:00,
2013-06-28 14:13:00,85.3,76.5,29.74,West,266,0.0,5.0,75,0.00,,---,0.00,VWS V13.01,2013-06-28 18:13:00,
2013-06-28 14:18:00,84.6,76.6,29.74,West,261,0.0,0.0,77,0.00,,---,0.00,VWS V13.01,2013-06-28 18:18:00,
2013-06-28 14:23:00,84.2,76.2,29.74,West,260,0.0,0.0,77,0.00,,---,0.00,VWS V13.01,2013-06-28 18:23:00,
2013-06-28 14:28:00,83.9,77.1,29.74,West,260,0.0,0.0,80,0.00,,---,0.00,VWS V13.01,2013-06-28 18:28:00,
2013-06-28 14:33:00,83.7,77.2,29.74,West,260,0.0,0.0,81,0.00,,---,0.00,VWS V13.01,2013-06-28 18:33:00,
2013-06-28 14:38:00,83.6,76.8,29.74,West,261,0.0,0.0,80,0.00,,---,0.00,VWS V13.01,2013-06-28 18:38:00,
2013-06-28 14:43:00,83.4,77.3,29.74,SE,134,0.0,3.0,82,0.00,,---,0.00,VWS V13.01,2013-06-28 18:43:00,
2013-06-28 14:48:00,83.2,77.5,29.74,SE,136,0.0,0.0,83,0.00,,---,0.00,VWS V13.01,2013-06-28 18:48:00,
2013-06-28 14:53:00,82.8,77.5,29.75,South,190,0.0,3.0,84,0.00,,---,0.00,VWS V13.01,2013-06-28 18:53:00,
2013-06-28 14:58:00,82.1,76.4,29.74,South,184,0.0,7.0,83,0.00,,---,0.00,VWS V13.01,2013-06-28 18:58:00,
2013-06-28 15:03:00,81.8,76.5,29.74,South,185,1.0,7.0,84,0.00,,---,0.00,VWS V13.01,2013-06-28 19:03:00,
2013-06-28 15:08:00,81.0,75.0,29.74,South,169,0.0,7.0,82,0.00,,---,0.00,VWS V13.01,2013-06-28 19:08:00,
2013-06-28 15:13:00,80.6,75.0,29.74,South,169,0.0,7.0,83,0.00,,---,0.00,VWS V13.01,2013-06-28 19:13:00,
2013-06-28 15:18:00,80.5,75.6,29.73,South,169,0.0,0.0,85,0.00,,---,0.00,VWS V13.01,2013-06-28 19:18:00,
2013-06-28 15:23:00,80.5,75.6,29.72,South,169,0.0,0.0,85,0.00,,---,0.00,VWS V13.01,2013-06-28 19:23:00,
2013-06-28 15:28:00,80.6,75.7,29.72,South,169,0.0,0.0,85,0.00,,---,0.00,VWS V13.01,2013-06-28 19:28:00,
2013-06-28 15:33:00,80.8,76.6,29.72,South,169,0.0,0.0,87,0.00,,---,0.00,VWS V13.01,2013-06-28 19:33:00,
2013-06-28 15:38:00,81.1,77.6,29.72,South,169,0.0,0.0,89,0.00,,---,0.00,VWS V13.01,2013-06-28 19:38:00,
2013-06-28 15:44:00,81.2,78.0,29.72,South,169,0.0,0.0,90,0.00,,---,0.00,VWS V13.01,2013-06-28 19:44:00,
2013-06-28 15:49:00,81.2,76.6,29.72,SW,234,0.0,3.0,86,0.00,,---,0.00,VWS V13.01,2013-06-28 19:49:00,
2013-06-28 15:54:00,81.4,76.5,29.73,West,259,0.0,3.0,85,0.00,,---,0.00,VWS V13.01,2013-06-28 19:54:00,
2013-06-28 15:59:00,81.6,75.9,29.73,West,259,0.0,0.0,83,0.00,,---,0.00,VWS V13.01,2013-06-28 19:59:00,
2013-06-28 16:04:00,81.9,76.2,29.72,West,259,0.0,0.0,83,0.00,,---,0.00,VWS V13.01,2013-06-28 20:04:00,
2013-06-28 16:09:00,82.1,76.4,29.73,West,259,0.0,0.0,83,0.00,,---,0.00,VWS V13.01,2013-06-28 20:09:00,
2013-06-28 16:14:00,82.4,76.7,29.73,West,259,0.0,0.0,83,0.00,,---,0.00,VWS V13.01,2013-06-28 20:14:00,
2013-06-28 16:19:00,82.0,74.5,29.73,North,360,9.0,17.0,78,0.00,,---,0.00,VWS V13.01,2013-06-28 20:19:00,
2013-06-28 16:24:00,81.0,73.1,29.72,North,360,0.0,17.0,77,0.00,,---,0.00,VWS V13.01,2013-06-28 20:24:00,
2013-06-28 16:29:00,80.3,72.8,29.73,NNE,28,2.0,2.0,78,0.00,,---,0.00,VWS V13.01,2013-06-28 20:29:00,
2013-06-28 16:34:00,79.4,73.1,29.75,West,273,0.0,3.0,81,0.01,,---,0.01,VWS V13.01,2013-06-28 20:34:00,
2013-06-28 16:39:00,77.8,72.9,29.75,West,276,2.0,2.0,85,0.03,,---,0.04,VWS V13.01,2013-06-28 20:39:00,
2013-06-28 18:41:00,72.6,71.1,29.71,SSW,200,0.0,0.0,95,0.02,,---,0.31,VWS V13.01,2013-06-28 22:41:00,
2013-06-28 18:46:00,72.7,71.2,29.72,SSW,200,0.0,0.0,95,0.02,,---,0.31,VWS V13.01,2013-06-28 22:46:00,
2013-06-28 18:51:00,72.9,71.4,29.72,SSW,200,0.0,0.0,95,0.02,,---,0.31,VWS V13.01,2013-06-28 22:51:00,
2013-06-28 18:56:00,72.9,71.4,29.72,SSW,200,0.0,0.0,95,0.02,,---,0.31,VWS V13.01,2013-06-28 22:56:00,
2013-06-28 19:01:00,73.0,71.5,29.72,SSW,200,0.0,0.0,95,0.02,,---,0.31,VWS V13.01,2013-06-28 23:01:00,
2013-06-28 19:06:00,73.2,71.7,29.72,SSW,200,0.0,0.0,95,0.02,,---,0.31,VWS V13.01,2013-06-28 23:06:00,
2013-06-28 19:11:00,73.3,71.8,29.72,SSW,200,0.0,0.0,95,0.02,,---,0.31,VWS V13.01,2013-06-28 23:11:00,
2013-06-28 19:16:00,73.5,72.0,29.72,SSW,200,0.0,0.0,95,0.02,,---,0.31,VWS V13.01,2013-06-28 23:16:00,
2013-06-28 19:21:00,73.8,72.3,29.71,SSW,200,0.0,0.0,95,0.01,,---,0.31,VWS V13.01,2013-06-28 23:21:00,
2013-06-28 19:26:00,74.0,72.5,29.72,SSW,200,0.0,0.0,95,0.01,,---,0.31,VWS V13.01,2013-06-28 23:26:00,
2013-06-28 19:31:00,74.1,72.6,29.72,SSW,200,0.0,0.0,95,0.00,,---,0.31,VWS V13.01,2013-06-28 23:31:00,
2013-06-28 19:36:00,74.1,72.6,29.72,SSW,200,0.0,0.0,95,0.00,,---,0.31,VWS V13.01,2013-06-28 23:36:00,
2013-06-28 19:41:00,74.1,72.6,29.71,SSW,200,0.0,0.0,95,0.00,,---,0.31,VWS V13.01,2013-06-28 23:41:00,
2013-06-28 19:46:00,74.2,72.7,29.71,SSW,200,0.0,0.0,95,0.00,,---,0.31,VWS V13.01,2013-06-28 23:46:00,
2013-06-28 19:51:00,74.1,72.6,29.71,SSW,200,0.0,0.0,95,0.00,,---,0.31,VWS V13.01,2013-06-28 23:51:00,
2013-06-28 19:56:00,74.1,72.6,29.71,SSW,200,0.0,0.0,95,0.00,,---,0.31,VWS V13.01,2013-06-28 23:56:00,
2013-06-28 20:01:00,74.2,72.7,29.71,SSW,200,0.0,0.0,95,0.00,,---,0.31,VWS V13.01,2013-06-29 00:01:00,
2013-06-28 20:06:00,74.3,72.8,29.71,SSW,200,0.0,0.0,95,0.00,,---,0.31,VWS V13.01,2013-06-29 00:06:00,
2013-06-28 20:11:00,74.3,72.8,29.71,SSW,200,0.0,0.0,95,0.00,,---,0.31,VWS V13.01,2013-06-29 00:11:00,
2013-06-28 20:16:00,74.2,72.7,29.71,SSW,200,0.0,0.0,95,0.00,,---,0.31,VWS V13.01,2013-06-29 00:16:00,
2013-06-28 20:21:00,74.3,72.8,29.71,SSW,200,0.0,0.0,95,0.00,,---,0.31,VWS V13.01,2013-06-29 00:21:00,
2013-06-28 20:26:00,74.4,72.9,29.72,SSW,200,0.0,0.0,95,0.00,,---,0.31,VWS V13.01,2013-06-29 00:26:00,
2013-06-28 20:32:00,74.4,72.9,29.72,SSW,200,0.0,0.0,95,0.00,,---,0.31,VWS V13.01,2013-06-29 00:32:00,
2013-06-28 20:37:00,74.4,72.9,29.72,SSW,200,0.0,0.0,95,0.00,,---,0.31,VWS V13.01,2013-06-29 00:37:00,
2013-06-28 20:42:00,74.4,72.9,29.72,SSW,200,0.0,0.0,95,0.00,,---,0.31,VWS V13.01,2013-06-29 00:42:00,
2013-06-28 20:47:00,74.5,73.0,29.72,SSW,200,0.0,0.0,95,0.00,,---,0.31,VWS V13.01,2013-06-29 00:47:00,
2013-06-28 20:52:00,74.7,73.2,29.73,SSW,200,0.0,0.0,95,0.00,,---,0.31,VWS V13.01,2013-06-29 00:52:00,
2013-06-28 20:57:00,74.7,73.2,29.73,SSW,200,0.0,0.0,95,0.00,,---,0.31,VWS V13.01,2013-06-29 00:57:00,
2013-06-28 21:02:00,74.7,73.2,29.73,SSW,200,0.0,0.0,95,0.00,,---,0.31,VWS V13.01,2013-06-29 01:02:00,
2013-06-28 21:07:00,74.6,73.1,29.73,SSW,200,0.0,0.0,95,0.00,,---,0.31,VWS V13.01,2013-06-29 01:07:00,
2013-06-28 21:12:00,74.6,73.1,29.73,SSW,200,0.0,0.0,95,0.00,,---,0.31,VWS V13.01,2013-06-29 01:12:00,
2013-06-28 21:17:00,74.6,73.1,29.73,SSW,200,0.0,0.0,95,0.00,,---,0.31,VWS V13.01,2013-06-29 01:17:00,
2013-06-28 21:22:00,74.6,72.8,29.73,SSW,200,0.0,0.0,94,0.00,,---,0.31,VWS V13.01,2013-06-29 01:22:00,
2013-06-28 21:27:00,74.6,72.8,29.73,SSW,200,0.0,0.0,94,0.00,,---,0.31,VWS V13.01,2013-06-29 01:27:00,
2013-06-28 21:32:00,74.5,73.0,29.73,SSW,200,0.0,0.0,95,0.00,,---,0.31,VWS V13.01,2013-06-29 01:32:00,
2013-06-28 21:37:00,74.5,72.7,29.73,SSW,200,0.0,0.0,94,0.00,,---,0.31,VWS V13.01,2013-06-29 01:37:00,
2013-06-28 21:42:00,74.5,73.0,29.74,SSW,200,0.0,0.0,95,0.00,,---,0.31,VWS V13.01,2013-06-29 01:42:00,
2013-06-28 21:47:00,74.5,73.0,29.74,SSW,200,0.0,0.0,95,0.00,,---,0.31,VWS V13.01,2013-06-29 01:47:00,
2013-06-28 21:52:00,74.5,73.0,29.74,SSW,200,0.0,0.0,95,0.00,,---,0.31,VWS V13.01,2013-06-29 01:52:00,
2013-06-28 21:57:00,74.5,73.0,29.74,SSW,200,0.0,0.0,95,0.00,,---,0.31,VWS V13.01,2013-06-29 01:57:00,
2013-06-28 22:02:00,74.5,73.0,29.75,SSW,200,0.0,0.0,95,0.00,,---,0.31,VWS V13.01,2013-06-29 02:02:00,
2013-06-28 22:07:00,74.6,72.8,29.75,SSW,200,0.0,0.0,94,0.00,,---,0.31,VWS V13.01,2013-06-29 02:07:00,
2013-06-28 22:12:00,74.8,73.0,29.75,SSW,200,0.0,0.0,94,0.00,,---,0.31,VWS V13.01,2013-06-29 02:12:00,
2013-06-28 22:17:00,74.9,73.4,29.75,SSW,200,0.0,0.0,95,0.00,,---,0.31,VWS V13.01,2013-06-29 02:17:00,
2013-06-28 22:22:00,74.9,73.4,29.75,SSW,200,0.0,0.0,95,0.00,,---,0.31,VWS V13.01,2013-06-29 02:22:00,
2013-06-28 22:27:00,74.8,73.3,29.75,SSW,200,0.0,0.0,95,0.00,,---,0.31,VWS V13.01,2013-06-29 02:27:00,
2013-06-28 22:32:00,74.8,73.3,29.75,SSW,200,0.0,0.0,95,0.00,,---,0.31,VWS V13.01,2013-06-29 02:32:00,
2013-06-28 22:37:00,74.6,73.1,29.75,SSW,200,0.0,0.0,95,0.00,,---,0.31,VWS V13.01,2013-06-29 02:37:00,
2013-06-28 22:42:00,74.5,73.0,29.75,SSW,200,0.0,0.0,95,0.00,,---,0.31,VWS V13.01,2013-06-29 02:42:00,
2013-06-28 22:47:00,74.5,73.0,29.75,SSW,200,0.0,0.0,95,0.00,,---,0.31,VWS V13.01,2013-06-29 02:47:00,
2013-06-28 22:52:00,74.6,73.1,29.75,SSW,200,0.0,0.0,95,0.00,,---,0.31,VWS V13.01,2013-06-29 02:52:00,
2013-06-28 22:57:00,74.6,73.1,29.74,SSW,199,0.0,0.0,95,0.00,,---,0.31,VWS V13.01,2013-06-29 02:57:00,
2013-06-28 23:03:00,74.7,73.2,29.74,SSW,199,0.0,0.0,95,0.00,,---,0.31,VWS V13.01,2013-06-29 03:03:00,
2013-06-28 23:08:00,74.8,73.3,29.75,SSW,199,0.0,0.0,95,0.00,,---,0.31,VWS V13.01,2013-06-29 03:08:00,
2013-06-28 23:13:00,74.9,73.4,29.75,SSW,200,0.0,0.0,95,0.00,,---,0.31,VWS V13.01,2013-06-29 03:13:00,
2013-06-28 23:18:00,74.9,73.4,29.75,SSW,199,0.0,0.0,95,0.00,,---,0.31,VWS V13.01,2013-06-29 03:18:00,
2013-06-28 23:23:00,75.0,73.5,29.75,SSW,200,0.0,0.0,95,0.00,,---,0.31,VWS V13.01,2013-06-29 03:23:00,
2013-06-28 23:28:00,75.0,73.5,29.74,SSW,199,0.0,0.0,95,0.00,,---,0.31,VWS V13.01,2013-06-29 03:28:00,
2013-06-28 23:33:00,75.1,73.6,29.74,SSW,199,0.0,0.0,95,0.00,,---,0.31,VWS V13.01,2013-06-29 03:33:00,
2013-06-28 23:38:00,75.2,73.7,29.74,SSW,199,0.0,0.0,95,0.00,,---,0.31,VWS V13.01,2013-06-29 03:38:00,
2013-06-28 23:43:00,75.3,73.8,29.74,SSW,199,0.0,0.0,95,0.00,,---,0.31,VWS V13.01,2013-06-29 03:43:00,
2013-06-28 23:48:00,75.2,73.7,29.73,SSW,199,0.0,0.0,95,0.00,,---,0.31,VWS V13.01,2013-06-29 03:48:00,
2013-06-28 23:53:00,75.3,73.8,29.73,SSW,200,0.0,0.0,95,0.00,,---,0.31,VWS V13.01,2013-06-29 03:53:00,
2013-06-28 23:58:00,75.4,73.9,29.73,SSW,200,0.0,0.0,95,0.00,,---,0.31,VWS V13.01,2013-06-29 03:58:00,